sat.trackr.live / text

‹ back to catalog

KUIPER-00044

NORAD 64505 · 2025-134F

PAYLOAD ACTIVE UNKNOWN

§ Identity

Operator
Country
US
Launch date
2025-06-23
Launch site
AFETR
Launch vehicle
Mass (kg)
RCS (m²)

External: N2YO · Heavens-Above · Gunter

§ Orbital elements

Epoch: 2026-09-21T18:10:23.286144Z

Period
97.30 min
Inclination
51.8993°
Eccentricity
0.0000782
Mean motion
14.79933192 rev/d
Perigee alt
629.0 km
Apogee alt
630.1 km
Semi-major
7,007.7 km
B*
1.2984e-4
RAAN
98.5401°
Arg perigee
113.5020°
Mean anomaly
246.6025°
Rev number
6,893

§ Raw data

KUIPER-000441 64505U 25134F   26264.75721396  .00000769  00000+0  12984-3 0  99932 64505  51.8993  98.5401 0000782 113.5020 246.6025 14.79933192 68932

JSON: /api/v1/satellites/64505 · /tle

For live sub-satellite position, see the globe view (requires WebGL).

§ Visibility from observer

Set your observer location to see the next 7 days of passes ≥ 10°. The values pass through the URL so the page stays shareable.

No JS? Fill the form by hand. The geolocation button needs JavaScript.